Retour au catalogue

FENGYUN 1C DEB

ActifSSO
NORAD 37047·DEBRIS·🇨🇳 China

Lancé May 10, 1999 depuis Taiyuan Satellite Launch Center

Loading…

Prochains Passages (prochaines 24 heures)

TLE

VieillissantSource: Space-Track

Époque: Sep 9, 2026, 08:49 UTC

1 37047U 99025EEF 26252.36769044  .00001983  00000-0  14600-2 0  9996
2 37047  99.1232 302.8174 0231909 207.8387 151.0200 13.84768631658277

Suivez FENGYUN 1C DEB en temps réel avec AllMySat

Download on the App Store